Location: Newark
(7.0858°N, 171.3717°E)
Time: 15:35:33
(UTC+00:00)

Courier 1B Rocket - Pass Details

Date: 05 December 2020
Orbit: 920 x 1202 km, 28.2° (Epoch: 20 January)

Event Time Altitude Azimuth Distance (km) Brightness Sun altitude
Rises 19:33:56 0° 313° (NW) 4,086 7.6 12.9°
Reaches altitude 10° 19:37:32 10° 328° (NNW) 3,125 7.2 13.7°
Maximum altitude 19:43:26 23° 17° (NNE) 2,291 7.0 15.0°
Drops below altitude 10° 19:49:12 10° 66° (ENE) 3,064 8.3 16.3°
Sets 19:52:41 0° 81° (E) 3,988 9.1 17.1°
